Location: Mountain View
(37.3861°N, 122.0839°W)
Time: 03:50:37
(UTC-07:00)

Hubble Space Telescope - Visible Passes

Search period start: 30 March 2017 00:00
Search period end: 09 April 2017 00:00
Orbit: 538 x 542 km, 28.5° (Epoch: 28 March)

Date Brightness Start Highest point End Pass type
(mag) Time Alt. Az. Time Alt. Az. Time Alt. Az.
30 Mar 2.7 04:57:14 20° SSE 04:57:14 20° SSE 04:59:23 10° ESE visible
31 Mar 2.9 04:47:45 18° SE 04:47:45 18° SE 04:49:22 10° ESE visible
31 Mar 2.5 06:23:41 10° WSW 06:26:46 20° S 06:29:50 10° SE visible
01 Apr 3.2 04:38:18 15° SE 04:38:18 15° SE 04:39:18 10° SE visible
01 Apr 2.6 06:13:46 10° SW 06:16:40 18° SSW 06:19:32 10° SSE visible
02 Apr 3.5 04:28:54 11° SE 04:28:54 11° SE 04:29:13 10° SE visible
02 Apr 2.7 06:04:16 11° SW 06:06:33 16° SSW 06:09:10 10° SSE visible
03 Apr 2.8 05:54:57 12° SW 05:56:25 14° SSW 05:58:39 10° SSE visible
04 Apr 2.9 05:45:42 12° SSW 05:46:17 12° SSW 05:47:54 10° S visible
